Showing default

OPS 9325 (IDSCS 12), 2652

Orbit data source: Space-Track

OPS 9325 (IDSCS 12), 2652 is a payload satellite owned by USAF SSD (US) in GEO that was launched on Wed, 18 Jan 1967 UTC via a TITAN IIIC launch vehicle from the Air Force Eastern Test Range (AFETR). Payload-class satellites include a variety of spacecraft equipped with specific instruments for various scientific and technological missions. These include communications satellites like Starlink; space stations such as the ISS; scientific satellites like the Hubble; Earth observation satellites from companies like Planet Labs, Umbra, and HawkEye 360; GPS; miniature CubeSats for education and research; and military/defense satellites.

Loading next visibility...
Identifier
2652, 1967-003E
Orbit
GEO
Country
Flag of USUS
Related business
Manufacturer
Philco-Ford WDL
Mission
Non-operational Defense Communications
Bus & Motor
IDCSP, Unknown motor
Mass
45 kg wet, 45 kg dry
Launch date (UTC)
1967-01-18 (59 years ago)
Launch vehicle
TITAN IIIC
Launch site
Air Force Eastern Test Range (AFETR)
Object type
Payload
Rocket body
Debris
Shape & HBR
Ico Poly, 0.5 m
Radar Cross Section
0.926 m², Small (<0.1 m²)

Expand to show TLE details & history
Last TLE update: 2 days ago

TLE from 2 days ago
0 OPS 9325 (IDSCS 12)
1 02652U 67003E   25258.77173133 -.00000086  00000-0  00000-0 0  9990
2 02652   7.7394  48.2480 0038543  75.6082 284.9222  1.07942386137150
Epoch: 2025-09-15T18:31Z
TLE epoch observation values (Epoch: 2025-09-15T18:31:17.586Z)
Latitude
0.00001°
Longitude
135.54568°
Altitude
33,725.453 km
Speed
3.154 km/s
True Right ascension
03h 13m 21s
True Declination
0° 00' 00"
Sunlit
Object was in daylight at epoch
Visualization orbit readout
Latitude
Unknown
Longitude
Unknown
Altitude
Unknown
Speed
Unknown
Apparent Right ascension
Unknown
Apparent Declination
Unknown
Sunlit
N/A
Visualization observer readout
Local Sidereal Time
23:41:30
Azimuth
Unknown
Elevation
Unknown
Doppler factor
Unknown
Orbital elements
Apogee altitude
33,920.436 km
Perigee altitude
33,610.983 km
Semi-major axis
40,143.846 km
Eccentricity
0.00385
Inclination
7.7394°
RAAN
48.248°
Arg. of periapsis
75.6082°
True anomaly
284.4949°
Mean anomaly
284.9222°
Eccentric anomaly
284.7086°
Mean motion
0.26985 °/min
Orbital period
1,334.1 mins
BSTAR
0
Loading maneuver chart data...
Computing Atmospheric mass density...
Loading historical data...
Loading historical data...
Loading historical data...
Loading historical data...
Loading historical data...
Loading historical data...
Loading historical data...

Documentation

Showing up to 5 results
|